When you browse on this site, cookies collect data to enhance your experience and personalize the content and advertising you see.
Visit our Privacy Policy to learn more. By continuing to use the site, you agree to this use of cookies and data.
  • en France
  • Liste des pays
  • À 7 jours
  • Température de l'eau
  • Carte météo
  • Widgets météo
  • user-avatar
    Se connecter

    Météo par heure à Gielniow

    Ce jour, 27 Février, Jeudi

    Heure Température Précipitation Vent Pression Humidité
    00:00 0°C° 0 mm 5 m/s 730 mmHg 82%
    01:00 0°C° 0 mm 5 m/s 730 mmHg 85%
    02:00 0°C° 0 mm 5 m/s 730 mmHg 84%
    03:00 0°C° 0 mm 5 m/s 731 mmHg 83%
    04:00 0°C° 0 mm 5 m/s 731 mmHg 82%
    05:00 0°C° 0.1 mm 5 m/s 731 mmHg 84%
    06:00 -1°C° 0.1 mm 5 m/s 732 mmHg 87%
    07:00 -1°C° 0.1 mm 5 m/s 732 mmHg 89%
    08:00 -1°C° 0.1 mm 6 m/s 732 mmHg 82%
    09:00 -1°C° 0.1 mm 6 m/s 732 mmHg 75%
    10:00 0°C° 0.1 mm 7 m/s 733 mmHg 68%
    11:00 0°C° 0 mm 7 m/s 733 mmHg 65%
    12:00 +2°C° 0 mm 7 m/s 733 mmHg 62%
    13:00 +2°C° 0 mm 7 m/s 733 mmHg 60%
    14:00 +2°C° 0 mm 6 m/s 733 mmHg 60%
    15:00 +2°C° 0 mm 5 m/s 732 mmHg 60%
    16:00 +3°C° 0 mm 4 m/s 732 mmHg 60%
    17:00 +1°C° 0 mm 4 m/s 732 mmHg 67%
    18:00 +1°C° 0 mm 3 m/s 732 mmHg 74%
    19:00 +1°C° 0 mm 2 m/s 732 mmHg 82%
    20:00 +1°C° 0 mm 2 m/s 732 mmHg 83%
    21:00 +1°C° 0 mm 2 m/s 732 mmHg 85%
    22:00 -1°C° 0 mm 2 m/s 732 mmHg 86%
    23:00 -1°C° 0 mm 2 m/s 732 mmHg 85%

    Demain, 28 Février, Vendredi

    Heure Température Précipitation Vent Pression Humidité
    00:00 +2°C° 0 mm 1 m/s 732 mmHg 84%
    01:00 +2°C° 0 mm 1 m/s 732 mmHg 83%
    02:00 +2°C° 0 mm 1 m/s 732 mmHg 83%
    03:00 +1°C° 0 mm 1 m/s 732 mmHg 82%
    04:00 +1°C° 0 mm 1 m/s 732 mmHg 81%
    05:00 +1°C° 0 mm 1 m/s 732 mmHg 81%
    06:00 +1°C° 0 mm 1 m/s 733 mmHg 81%
    07:00 +2°C° 0 mm 1 m/s 733 mmHg 81%
    08:00 +2°C° 0 mm 1 m/s 734 mmHg 77%
    09:00 +2°C° 0 mm 2 m/s 735 mmHg 73%
    10:00 +3°C° 0 mm 2 m/s 736 mmHg 69%
    11:00 +2°C° 0.1 mm 3 m/s 736 mmHg 72%
    12:00 +1°C° 0.1 mm 4 m/s 737 mmHg 75%
    13:00 +1°C° 0.1 mm 5 m/s 738 mmHg 78%
    14:00 +1°C° 0 mm 5 m/s 738 mmHg 74%
    15:00 +2°C° 0 mm 5 m/s 739 mmHg 70%
    16:00 +2°C° 0 mm 5 m/s 739 mmHg 66%
    17:00 +1°C° 0 mm 4 m/s 740 mmHg 70%
    18:00 0°C° 0 mm 4 m/s 740 mmHg 75%
    19:00 0°C° 0 mm 4 m/s 741 mmHg 79%
    20:00 -1°C° 0 mm 4 m/s 741 mmHg 80%
    21:00 -1°C° 0 mm 4 m/s 741 mmHg 81%
    22:00 -2°C° 0 mm 4 m/s 741 mmHg 82%
    23:00 -2°C° 0 mm 4 m/s 742 mmHg 83%

    Après-demain, 29 Février, Samedi

    Heure Température Précipitation Vent Pression Humidité
    00:00 -2°C° 0 mm 4 m/s 742 mmHg 85%
    01:00 -2°C° 0 mm 5 m/s 742 mmHg 87%
    02:00 -2°C° 0 mm 4 m/s 742 mmHg 88%
    03:00 -2°C° 0 mm 4 m/s 742 mmHg 89%
    04:00 -2°C° 0 mm 4 m/s 741 mmHg 91%
    05:00 -1°C° 0 mm 3 m/s 741 mmHg 89%
    06:00 -1°C° 0 mm 3 m/s 741 mmHg 88%
    07:00 -1°C° 0 mm 3 m/s 741 mmHg 87%
    08:00 0°C° 0 mm 3 m/s 741 mmHg 78%
    09:00 +1°C° 0 mm 4 m/s 740 mmHg 69%
    10:00 +2°C° 0 mm 5 m/s 740 mmHg 60%
    11:00 +3°C° 0 mm 5 m/s 739 mmHg 55%
    12:00 +5°C° 0 mm 5 m/s 739 mmHg 49%
    13:00 +5°C° 0 mm 6 m/s 738 mmHg 44%
    14:00 +6°C° 0 mm 5 m/s 737 mmHg 45%
    15:00 +6°C° 0 mm 5 m/s 737 mmHg 47%
    16:00 +6°C° 0 mm 5 m/s 736 mmHg 48%
    17:00 +5°C° 0 mm 5 m/s 736 mmHg 52%
    18:00 +3°C° 0 mm 5 m/s 735 mmHg 57%
    19:00 +3°C° 0 mm 5 m/s 735 mmHg 61%
    20:00 +2°C° 0 mm 5 m/s 735 mmHg 62%
    21:00 +2°C° 0 mm 5 m/s 735 mmHg 63%
    22:00 +2°C° 0 mm 5 m/s 735 mmHg 64%
    23:00 +2°C° 0 mm 5 m/s 734 mmHg 64%

    1 Mars, Dimanche

    Heure Température Précipitation Vent Pression Humidité
    00:00 +2°C° 0 mm 5 m/s 734 mmHg 64%
    01:00 +3°C° 0 mm 4 m/s 734 mmHg 63%
    02:00 +2°C° 0 mm 5 m/s 734 mmHg 66%
    03:00 +2°C° 0 mm 5 m/s 734 mmHg 69%
    04:00 +2°C° 0 mm 5 m/s 734 mmHg 72%
    05:00 +2°C° 1 mm 5 m/s 734 mmHg 79%
    06:00 +2°C° 1 mm 5 m/s 734 mmHg 85%
    07:00 +1°C° 1 mm 5 m/s 734 mmHg 92%
    08:00 +2°C° 0.3 mm 5 m/s 734 mmHg 88%
    09:00 +3°C° 0.3 mm 5 m/s 734 mmHg 85%
    10:00 +5°C° 0.3 mm 5 m/s 734 mmHg 82%
    11:00 +4°C° 0 mm 6 m/s 734 mmHg 78%
    12:00 +5°C° 0 mm 6 m/s 734 mmHg 74%
    13:00 +7°C° 0 mm 6 m/s 734 mmHg 70%
    14:00 +7°C° 0 mm 6 m/s 734 mmHg 69%
    15:00 +6°C° 0 mm 5 m/s 734 mmHg 68%
    16:00 +6°C° 0 mm 5 m/s 733 mmHg 67%
    17:00 +6°C° 0 mm 5 m/s 733 mmHg 69%
    18:00 +5°C° 0 mm 4 m/s 734 mmHg 72%
    19:00 +4°C° 0 mm 4 m/s 734 mmHg 74%
    20:00 +4°C° 0 mm 4 m/s 733 mmHg 77%
    21:00 +3°C° 0 mm 3 m/s 733 mmHg 79%
    22:00 +3°C° 0 mm 3 m/s 733 mmHg 82%
    23:00 +3°C° 0 mm 3 m/s 733 mmHg 84%

    2 Mars, Lundi

    Heure Température Précipitation Vent Pression Humidité
    00:00 +2°C° 0 mm 3 m/s 732 mmHg 87%
    01:00 +3°C° 0 mm 2 m/s 732 mmHg 89%
    02:00 +3°C° 0 mm 2 m/s 731 mmHg 90%
    03:00 +3°C° 0 mm 2 m/s 731 mmHg 90%
    04:00 +3°C° 0 mm 2 m/s 730 mmHg 91%
    05:00 +2°C° 0 mm 3 m/s 730 mmHg 91%
    06:00 +2°C° 0 mm 3 m/s 730 mmHg 92%
    07:00 +3°C° 0 mm 3 m/s 729 mmHg 92%
    08:00 +3°C° 0.2 mm 3 m/s 729 mmHg 91%
    09:00 +4°C° 0.2 mm 3 m/s 728 mmHg 91%
    10:00 +5°C° 0.2 mm 3 m/s 728 mmHg 91%
    11:00 +5°C° 0.2 mm 3 m/s 728 mmHg 90%
    12:00 +7°C° 0.2 mm 3 m/s 728 mmHg 89%
    13:00 +7°C° 0.2 mm 3 m/s 728 mmHg 89%
    14:00 +5°C° 0.1 mm 4 m/s 728 mmHg 88%
    15:00 +5°C° 0.1 mm 5 m/s 728 mmHg 87%
    16:00 +4°C° 0.1 mm 6 m/s 728 mmHg 86%
    17:00 +3°C° 0 mm 5 m/s 729 mmHg 85%
    18:00 +4°C° 0 mm 4 m/s 729 mmHg 84%
    19:00 +3°C° 0 mm 4 m/s 730 mmHg 84%
    20:00 +2°C° 0 mm 3 m/s 731 mmHg 85%
    21:00 +2°C° 0 mm 3 m/s 731 mmHg 86%
    22:00 +1°C° 0 mm 3 m/s 732 mmHg 87%
    23:00 +1°C° 0 mm 3 m/s 732 mmHg 85%

    3 Mars, Mardi

    Heure Température Précipitation Vent Pression Humidité
    00:00 +1°C° 0 mm 3 m/s 733 mmHg 84%
    01:00 +1°C° 0 mm 3 m/s 734 mmHg 83%
    02:00 +1°C° 0 mm 3 m/s 734 mmHg 84%
    03:00 0°C° 0 mm 3 m/s 734 mmHg 85%
    04:00 0°C° 0 mm 3 m/s 734 mmHg 87%
    05:00 0°C° 0 mm 3 m/s 734 mmHg 86%
    06:00 +1°C° 0 mm 2 m/s 735 mmHg 85%
    07:00 +1°C° 0 mm 2 m/s 735 mmHg 84%
    08:00 +2°C° 0 mm 3 m/s 735 mmHg 78%
    09:00 +4°C° 0 mm 3 m/s 736 mmHg 71%
    10:00 +5°C° 0 mm 4 m/s 736 mmHg 65%
    11:00 +7°C° 0 mm 3 m/s 736 mmHg 61%
    12:00 +8°C° 0 mm 3 m/s 736 mmHg 58%
    13:00 +9°C° 0 mm 3 m/s 736 mmHg 54%
    14:00 +8°C° 0 mm 3 m/s 736 mmHg 57%
    15:00 +8°C° 0 mm 2 m/s 735 mmHg 60%
    16:00 +8°C° 0 mm 2 m/s 735 mmHg 63%
    17:00 +7°C° 0.2 mm 2 m/s 735 mmHg 69%
    18:00 +7°C° 0.2 mm 2 m/s 735 mmHg 76%
    19:00 +6°C° 0.2 mm 2 m/s 735 mmHg 82%
    20:00 +6°C° 0.7 mm 2 m/s 735 mmHg 85%
    21:00 +5°C° 0.7 mm 2 m/s 735 mmHg 88%
    22:00 +6°C° 0.7 mm 1 m/s 735 mmHg 90%
    23:00 +5°C° 0.4 mm 2 m/s 735 mmHg 92%
    Voir plus